Date String (YYYY-MM-DD hh:mm:ss) UTC,Instrument flags,Ambient pressure (hPa),Sample flow (lpm),Bypass flow (lpm),Sample temperature (°C),Ambient temperature (°C),ASC tube jacket temperature (°C),LED temperature (°C),Box temperature (°C),Sample RH (%),Span deviation,Mass concentration (μg/m³),Mass concentration (μg/m³),Mass concentration (μg/m³)
DateTimeUTC,F1_M11,P_M11,Q1_M11,Q2_M11,T1_M11,T2_M11,T3_M11,T4_M11,T5_M11,U1_M11,ZSPAN_M11,X0_M11,X2_M11,X1_M11
2022-04-19 15:00:00,,0817.1,4.99,0.00,24.4,23.7,00.0,33.2,26.4,17.8,-000.6,0029.55,0012.00,0009.05
2022-04-19 15:01:00,,0817.3,4.99,0.00,24.4,23.7,00.0,33.3,26.4,17.9,-000.6,0030.03,0011.91,0008.90
2022-04-19 15:02:00,,0817.2,5.01,0.00,24.5,23.7,00.0,33.3,26.3,18.6,-000.7,0030.83,0011.91,0008.83
2022-04-19 15:03:00,,0817.1,5.01,0.00,24.4,23.7,00.0,33.3,26.3,18.8,-000.9,0031.26,0011.94,0008.82
2022-04-19 15:04:00,,0817.0,5.01,0.00,24.5,23.7,00.0,33.3,26.4,18.7,-000.8,0029.99,0011.89,0008.82
2022-04-19 15:05:00,,0817.1,5.00,0.00,24.5,23.7,00.0,33.3,26.3,18.6,-000.3,0029.90,0011.87,0008.83
2022-04-19 15:06:00,,0817.1,4.98,0.00,24.5,23.7,00.0,33.3,26.3,18.6,0000.4,0030.18,0011.83,0008.85
2022-04-19 15:07:00,,0817.2,5.00,0.00,24.5,23.7,00.0,33.3,26.4,18.7,0000.0,0029.95,0011.77,0008.84
2022-04-19 15:08:00,,0817.0,5.00,0.00,24.5,23.7,00.0,33.3,26.4,19.0,0000.1,0029.93,0011.72,0008.81
2022-04-19 15:09:00,,0817.0,5.00,0.00,24.5,23.7,00.0,33.4,26.4,18.9,-000.1,0029.69,0011.67,0008.82
2022-04-19 15:10:00,,0817.0,5.00,0.00,24.5,23.7,00.0,33.4,26.4,18.8,0000.2,0028.97,0011.74,0008.87
2022-04-19 15:11:00,,0817.0,5.01,0.00,24.5,23.7,00.0,33.4,26.3,18.7,0000.4,0028.62,0011.82,0008.92
2022-04-19 15:12:00,,0817.0,5.00,0.00,24.5,23.7,00.0,33.4,26.4,18.9,0000.6,0027.09,0011.81,0009.00
2022-04-19 15:13:00,,0817.0,5.00,0.00,24.5,23.7,00.0,33.4,26.4,19.0,0000.7,0026.47,0011.85,0009.07
2022-04-19 15:14:00,,0817.1,5.00,0.00,24.5,23.7,00.0,33.4,26.4,18.9,0000.7,0026.06,0011.77,0009.04
2022-04-19 15:15:00,,0817.4,4.99,0.00,24.5,23.7,00.0,33.4,26.4,19.0,0000.9,0027.63,0011.72,0009.00
2022-04-19 15:16:00,,0817.3,5.00,0.00,24.6,23.8,00.0,33.4,26.5,18.5,0000.9,0027.51,0011.71,0008.93
2022-04-19 15:17:00,,0817.3,5.01,0.00,24.6,23.8,00.0,33.4,26.5,18.7,0000.7,0027.93,0011.67,0008.84
2022-04-19 15:18:00,,0817.2,5.00,0.00,24.6,23.8,00.0,33.4,26.5,18.4,0000.9,0027.99,0011.63,0008.75
2022-04-19 15:19:00,,0817.3,5.01,0.00,24.6,23.8,00.0,33.4,26.6,18.9,0000.7,0028.28,0011.59,0008.64
2022-04-19 15:20:00,,0816.8,5.00,0.00,24.6,23.8,00.0,33.5,26.6,19.3,0000.4,0028.69,0011.55,0008.53
2022-04-19 15:21:00,,0816.8,4.99,0.00,24.7,23.9,00.0,33.5,26.6,19.3,0000.2,0029.57,0011.53,0008.47
2022-04-19 15:22:00,,0816.8,5.00,0.00,24.7,23.9,00.0,33.5,26.6,19.3,-000.2,0029.63,0011.55,0008.44
2022-04-19 15:23:00,,0816.7,5.00,0.00,24.7,23.9,00.0,33.5,26.6,19.2,0000.2,0030.81,0011.59,0008.42
2022-04-19 15:24:00,,0816.8,5.01,0.00,24.7,23.9,00.0,33.5,26.6,19.2,0000.7,0031.00,0011.58,0008.39
2022-04-19 15:25:00,,0816.8,5.00,0.00,24.7,23.9,00.0,33.5,26.6,19.1,0000.9,0030.97,0011.62,0008.37
2022-04-19 15:26:00,,0816.9,5.00,0.00,24.7,23.9,00.0,33.6,26.6,19.1,0001.1,0030.32,0011.68,0008.38
2022-04-19 15:27:00,,0816.8,4.99,0.00,24.7,23.9,00.0,33.6,26.6,18.8,0001.1,0031.02,0011.67,0008.40
2022-04-19 15:28:00,,0816.7,4.99,0.00,24.7,23.9,00.0,33.6,26.6,18.8,0001.0,0032.22,0011.65,0008.43
2022-04-19 15:29:00,,0816.6,5.00,0.00,24.7,23.9,00.0,33.6,26.6,18.7,0001.0,0031.89,0011.75,0008.49
2022-04-19 15:30:00,,0816.6,5.00,0.00,24.7,23.9,00.0,33.6,26.7,18.8,0001.0,0031.28,0011.81,0008.58
2022-04-19 15:31:00,,0816.6,5.01,0.00,24.8,23.9,00.0,33.6,26.7,18.9,0001.4,0031.45,0011.93,0008.66
2022-04-19 15:32:00,,0816.9,4.99,0.00,24.8,24.0,00.0,33.6,26.7,18.9,0001.6,0031.68,0011.99,0008.72
2022-04-19 15:33:00,,0816.6,4.99,0.00,24.8,24.0,00.0,33.6,26.7,18.7,0001.7,0031.61,0011.96,0008.72
2022-04-19 15:34:00,,0816.8,5.00,0.00,24.8,24.0,00.0,33.6,26.7,18.5,0001.5,0032.05,0011.92,0008.71
2022-04-19 15:35:00,,0816.7,5.02,0.00,24.8,24.0,00.0,33.6,26.7,18.4,0001.1,0032.32,0011.87,0008.67
2022-04-19 15:36:00,,0816.6,5.00,0.00,24.8,24.1,00.0,33.7,26.8,18.7,0000.7,0033.15,0011.91,0008.68
2022-04-19 15:37:00,,0816.6,4.99,0.00,24.9,24.1,00.0,33.7,26.8,18.5,0000.6,0033.04,0011.93,0008.71
2022-04-19 15:38:00,,0816.8,5.00,0.00,24.9,24.1,00.0,33.7,26.8,18.4,0000.3,0032.05,0012.00,0008.73
2022-04-19 15:39:00,,0816.8,4.98,0.00,24.9,24.1,00.0,33.7,26.8,18.5,0000.3,0030.27,0012.07,0008.78
2022-04-19 15:40:00,,0816.7,5.00,0.00,24.9,24.1,00.0,33.7,26.8,18.1,0000.3,0031.11,0012.07,0008.83
2022-04-19 15:41:00,,0816.6,5.02,0.00,24.9,24.1,00.0,33.7,26.8,18.0,0000.3,0032.45,0012.06,0008.87
2022-04-19 15:42:00,,0816.8,4.99,0.00,24.9,24.1,00.0,33.7,26.8,17.6,0000.2,0032.43,0011.99,0008.84
2022-04-19 15:43:00,,0816.7,5.00,0.00,24.9,24.1,00.0,33.7,26.8,18.0,0000.4,0031.29,0011.94,0008.80
2022-04-19 15:44:00,,0816.5,4.99,0.00,24.9,24.1,00.0,33.7,26.8,18.2,0000.4,0030.47,0011.99,0008.83
2022-04-19 15:45:00,,0816.5,5.00,0.00,24.9,24.2,00.0,33.8,26.8,18.2,0000.6,0029.49,0012.02,0008.88
2022-04-19 15:46:00,,0816.5,5.01,0.00,24.9,24.2,00.0,33.8,26.8,18.4,0000.6,0029.35,0012.03,0008.91
2022-04-19 15:47:00,,0816.5,5.01,0.00,25.0,24.2,00.0,33.8,26.9,18.7,0000.9,0028.84,0012.10,0009.01
2022-04-19 15:48:00,,0816.4,5.00,0.00,25.0,24.2,00.0,33.8,26.9,18.9,0000.7,0028.19,0012.14,0009.08
2022-04-19 15:49:00,,0816.5,4.99,0.00,25.0,24.2,00.0,33.8,26.9,18.8,0000.6,0028.88,0012.24,0009.17
2022-04-19 15:50:00,,0816.7,5.00,0.00,25.0,24.2,00.0,33.8,26.9,18.8,0000.5,0029.50,0012.33,0009.22
2022-04-19 15:51:00,,0816.7,4.99,0.00,25.1,24.3,00.0,33.8,27.0,18.2,0000.8,0028.52,0012.34,0009.23
2022-04-19 15:52:00,,0816.7,5.00,0.00,25.1,24.3,00.0,33.9,27.0,18.3,0000.5,0027.34,0012.31,0009.25
2022-04-19 15:53:00,,0816.7,5.00,0.00,25.1,24.3,00.0,33.9,27.0,18.0,0000.0,0027.56,0012.37,0009.27
2022-04-19 15:54:00,,0816.5,5.01,0.00,25.1,24.3,00.0,33.9,27.0,18.1,-000.5,0029.01,0012.47,0009.30
2022-04-19 15:55:00,,0816.5,4.99,0.00,25.1,24.3,00.0,33.9,27.0,17.9,-000.4,0030.37,0012.50,0009.27
2022-04-19 15:56:00,,0816.5,5.00,0.00,25.1,24.3,00.0,33.9,27.1,17.7,-000.4,0032.20,0012.46,0009.22
2022-04-19 15:57:00,,0816.5,5.01,0.00,25.2,24.4,00.0,33.9,27.1,17.2,-000.4,0033.35,0012.49,0009.17
2022-04-19 15:58:00,,0816.5,5.00,0.00,25.2,24.4,00.0,34.0,27.1,17.1,-000.3,0033.87,0012.34,0009.00
2022-04-19 15:59:00,,0816.4,4.99,0.00,25.2,24.4,00.0,34.0,27.1,16.9,-000.1,0033.51,0012.14,0008.78
